Temperature
18 18 18 18 18 18 18 18 18 18 18 18 18 18 18 18 18 19 19 18 18 18 18 18 19 19 19 18 18 18 18 18 17 17 17 18 18 17 17 17 17 17 17
18 17 17 18 18 18 18 17 17 17 17 17 17 18 18 18 18 18 18 18 18 18 18 18 18 19 19 18 18 18 18 18 17 17 17 17 17 17 17 17 17 17 17
17 17 17 17 17 17 17 17 17 17 17 17 17 17 17 17 18 18 18 18 18 18 18 18 18 18 18 18 18 18 18 18 18 17 17 17 17 17 17 17 17 17 17
17 17 17 16 16 16 16 16 16 16 17 17 17 17 17 17 17 18 18 18 18 18 18 18 18 18 18 18 18 18 18 18 18 17 17 17 17 17 17 17 17 17 17
16 16 16 16 16 16 16 16 16 16 16 16 16 17 17 17 17 18 18 18 18 17 17 18 18 18 18 18 18 18 18 18 18 18 17 17 17 17 17 17 17 17 17
15 16 16 16 15 15 15 15 15 15 16 16 16 16 17 17 17 18 18 18 18 17 17 17 17 18 18 18 18 18 18 18 18 18 18 17 17 17 17 17 17 17 17
15 15 15 15 15 15 15 15 15 15 15 15 16 16 17 17 18 18 18 18 18 18 17 17 17 17 18 18 18 18 18 18 18 17 17 18 17 17 17 17 17 17 17
14 14 14 14 14 15 15 15 15 15 15 15 15 16 16 17 17 18 18 18 18 18 18 17 17 17 17 18 18 18 18 18 17 17 17 17 17 17 17 17 17 17 17
14 14 14 14 14 14 14 14 14 15 15 15 15 16 16 17 18 18 18 18 18 18 18 18 18 18 17 17 17 17 18 18 17 17 17 17 17 17 17 17 17 17 17
14 14 14 14 14 14 14 14 14 14 15 15 15 16 16 17 17 18 18 18 18 18 18 18 18 18 18 17 17 17 17 17 17 17 17 17 17 17 17 17 17 17 17
14 14 14 14 13 13 13 14 14 14 14 15 15 15 16 16 17 17 18 18 18 18 18 18 18 18 18 17 17 17 17 17 17 17 17 17 17 17 17 17 17 17 17
13 14 14 13 13 13 13 13 13 14 14 14 15 15 15 15 16 17 17 18 18 18 18 18 18 18 18 17 17 17 17 17 17 17 17 17 17 17 16 16 16 17 17
13 13 13 13 12 12 12 12 12 13 13 14 14 15 15 15 15 16 17 18 18 18 18 18 18 17 17 17 17 17 17 17 17 17 17 17 17 17 17 16 17 16 16
11 12 12 12 12 12 12 12 12 12 12 13 13 14 14 15 15 16 16 17 18 18 18 18 17 17 17 17 17 17 17 17 17 17 17 17 17 17 17 17 17 16 16
11 11 11 11 11 11 11 11 11 11 12 12 12 13 13 14 15 15 16 16 17 18 18 18 17 17 17 17 16 16 16 16 17 17 17 17 17 17 17 17 17 16 16
10 10 10 10 10 11 11 11 11 11 11 11 12 12 13 13 14 15 15 16 17 17 17 18 17 17 17 16 16 16 16 16 16 17 17 17 17 17 17 17 17 16 16
9 9 9 9 10 10 10 10 11 11 11 11 11 11 12 12 13 14 14 15 16 16 17 17 17 17 16 16 16 15 15 16 16 16 17 17 17 17 17 17 16 16 16
8 8 8 9 9 9 9 10 10 11 11 11 11 11 11 11 12 13 13 14 15 16 16 16 16 16 16 16 15 15 15 15 16 16 16 16 16 16 16 16 16 16 16
8 8 8 8 8 8 9 9 10 10 10 11 11 11 11 11 11 12 12 13 14 15 15 15 15 15 15 15 15 14 14 14 15 15 15 16 16 16 16 16 16 16 16
8 8 8 8 8 8 8 9 9 10 10 10 10 10 10 11 11 11 11 12 13 14 14 15 15 15 15 14 14 14 13 13 13 14 14 14 15 15 15 15 16 16 15
8 8 7 7 7 7 8 8 9 9 9 10 10 10 10 10 10 11 11 11 12 13 13 14 14 14 14 14 14 13 13 12 12 12 13 13 14 14 14 15 15 15 15
7 7 7 7 7 7 8 8 8 8 9 9 10 10 10 10 10 10 10 10 11 12 12 13 14 14 14 14 14 13 13 12 12 12 12 12 12 13 13 14 14 14 14
7 7 7 7 7 7 7 7 8 8 8 9 9 9 9 10 10 10 10 10 10 11 12 12 13 13 14 14 14 13 13 12 12 12 12 11 11 12 12 12 13 13 13
7 7 7 7 7 7 7 7 7 7 8 8 9 9 9 10 10 10 10 10 10 11 11 12 12 13 13 14 14 14 13 12 12 12 11 11 11 11 11 12 12 12 12
7 7 7 7 7 7 7 7 7 7 7 8 8 9 9 9 9 10 9 9 10 10 10 11 12 12 12 13 13 13 12 12 11 11 11 11 11 11 11 11 11 11 11
7 7 7 7 7 7 7 6 6 6 7 7 8 8 9 9 9 9 9 9 9 9 10 10 11 11 12 12 13 13 13 12 12 11 11 11 11 11 10 10 10 11 11
Wind_Speed
6 6 4 3 6 7 6 8 8 10 10 9 10 10 10 11 12 10 9 19 22 23 22 21 21 20 20 21 22 22 22 22 22 21 19 19 18 18 17 17 16 15 14
5 6 7 7 6 7 7 6 9 9 9 8 10 10 9 10 11 10 9 14 19 20 21 21 22 22 22 22 22 23 24 24 23 23 22 21 20 20 19 19 18 18 17
6 6 6 6 6 8 8 6 7 7 8 9 10 11 9 8 8 9 11 11 14 19 21 23 23 24 24 24 23 23 24 24 24 24 23 23 22 22 22 21 21 20 19
7 4 5 5 4 5 6 7 7 8 8 8 8 9 9 8 10 8 10 11 11 14 20 25 25 25 25 25 25 24 25 25 25 25 25 24 24 23 23 23 23 23 22
7 4 3 3 3 4 5 8 7 7 8 8 8 9 9 9 9 11 10 10 13 15 16 22 27 27 27 27 26 26 25 26 26 26 26 25 25 24 24 24 24 24 24
6 4 4 3 3 3 4 5 7 7 7 7 10 10 9 10 9 10 11 10 11 16 19 18 20 23 28 27 27 26 26 26 26 26 26 26 26 25 25 25 24 25 25
6 4 4 4 3 2 2 4 4 5 5 6 6 7 8 11 11 10 10 9 12 14 16 16 17 17 18 27 28 27 27 27 26 26 26 26 26 26 25 24 24 25 25
4 5 4 4 3 3 2 2 2 2 4 4 4 4 4 7 9 12 10 10 11 10 11 13 15 16 15 16 21 27 27 27 26 26 25 25 26 25 25 24 24 24 25
3 3 4 4 4 3 2 2 2 2 3 4 4 3 3 3 3 5 9 9 8 7 8 9 11 14 16 14 17 25 29 28 27 27 26 25 25 25 25 24 24 23 24
5 4 3 3 3 4 4 4 2 2 3 3 4 4 5 3 1 1 3 6 8 7 6 7 9 10 14 13 14 19 27 27 27 26 26 26 25 25 25 24 25 24 24
7 5 4 2 2 3 3 4 4 3 2 3 3 4 5 5 4 3 3 4 5 6 6 5 4 5 9 10 11 16 23 25 24 24 24 24 25 25 25 25 25 25 25
5 5 3 2 2 2 3 4 4 5 4 4 4 4 4 4 4 5 5 5 6 6 7 6 5 4 4 7 9 14 20 21 22 22 21 22 23 24 25 26 26 26 26
7 7 6 2 3 3 4 4 4 5 5 5 5 5 4 5 6 6 5 4 4 4 5 5 5 4 4 7 8 12 14 17 18 18 18 19 21 22 23 25 26 26 25
9 9 8 5 5 5 6 5 4 5 5 5 6 6 5 6 6 6 5 5 3 3 5 6 5 5 4 7 11 10 9 12 14 15 16 17 18 19 20 22 23 24 24
10 10 10 10 8 7 7 6 6 6 5 5 5 5 5 5 6 6 6 5 3 4 5 5 5 6 6 7 10 7 8 9 10 12 14 15 16 17 17 18 19 20 21
9 10 10 10 9 9 8 8 7 7 8 7 5 5 5 5 6 7 6 5 4 4 3 4 5 8 8 8 8 9 10 10 7 8 10 12 14 14 14 15 15 15 16
9 10 10 10 10 10 10 9 9 9 9 8 7 7 7 6 5 6 7 6 5 3 4 2 4 9 9 10 8 9 10 8 7 7 9 10 11 12 12 12 12 12 12
10 10 10 11 12 12 11 11 11 11 10 10 9 9 8 7 7 6 6 7 6 4 3 3 5 6 9 10 9 8 7 9 8 11 13 13 13 13 13 13 12 12 12
10 11 11 11 11 12 12 12 11 11 11 10 10 10 9 8 8 6 6 6 6 6 4 3 5 6 6 9 10 9 10 8 8 11 14 15 15 16 16 16 16 16 15
11 11 11 11 11 12 12 12 13 12 11 11 10 10 9 9 9 8 7 7 7 7 6 5 5 8 8 9 9 9 8 7 6 8 10 13 16 17 16 17 17 17 18
14 12 12 12 11 12 13 13 12 14 11 12 11 11 11 11 12 10 7 6 7 7 7 6 6 7 8 10 10 8 9 8 7 6 7 7 8 8 10 14 15 17 19
12 12 13 13 14 15 15 12 9 9 9 10 11 11 11 11 12 13 12 10 8 8 8 7 6 8 10 9 9 11 11 10 5 5 6 6 7 7 6 9 13 17 19
13 12 13 13 14 14 16 16 14 10 10 10 10 10 13 14 13 11 12 13 11 9 8 7 7 7 9 10 11 12 12 11 6 8 7 7 7 8 7 11 15 17 19
12 12 13 13 13 14 16 15 14 12 12 11 11 11 11 10 9 9 10 11 10 10 9 7 6 6 6 6 9 10 11 9 9 7 6 6 7 7 8 9 12 16 18
12 12 12 12 12 12 14 14 13 9 9 11 10 11 11 11 11 11 9 10 10 9 10 10 8 6 6 7 7 9 12 13 10 6 4 5 7 8 6 6 9 13 16
12 12 12 11 12 12 12 12 12 8 9 8 8 9 11 11 12 12 9 8 9 9 8 9 8 7 7 7 9 10 13 14 11 6 5 6 10 6 5 4 5 8 10
Wind_Direction
261 270 271 275 263 244 220 219 221 219 219 220 227 221 215 217 226 230 195 187 191 193 193 196 201 206 209 210 210 209 208 206 205 203 202 205 206 204 201 200 199 197 196
284 272 272 268 266 267 263 240 233 233 228 226 227 229 223 221 223 227 215 200 199 201 204 205 207 210 212 212 212 211 209 208 207 205 204 206 208 208 205 204 203 202 201
304 290 277 272 267 269 272 271 261 244 234 230 230 231 229 227 221 218 224 218 210 212 215 216 214 213 214 215 213 212 211 209 208 206 206 206 207 209 208 206 205 205 205
325 309 294 288 286 282 277 269 258 256 250 242 235 234 231 224 225 217 217 219 219 223 222 222 218 216 215 216 215 212 210 209 208 207 206 207 208 210 210 208 207 207 207
344 329 312 305 297 283 282 274 258 247 249 250 246 236 230 226 219 221 214 216 219 224 227 222 217 217 218 218 216 214 211 210 208 208 208 209 210 211 211 210 209 208 209
354 337 310 312 310 301 302 290 276 263 248 242 245 243 226 225 217 215 213 212 213 218 224 221 210 217 219 218 216 214 213 211 209 208 209 210 211 211 211 211 210 210 210
349 320 322 312 301 287 296 305 275 269 251 242 237 248 242 225 216 212 211 211 211 214 215 212 204 206 211 217 215 213 214 213 211 209 209 211 210 210 211 210 211 212 211
340 333 335 314 311 296 288 292 277 277 280 258 237 239 247 232 221 213 201 207 215 211 210 205 200 198 199 201 212 214 214 213 212 211 211 212 210 210 210 210 211 213 214
305 295 315 321 322 311 303 288 270 261 276 275 252 236 239 239 233 210 200 200 199 205 208 201 197 195 196 192 198 210 212 211 212 213 211 211 210 209 208 207 209 212 215
291 275 267 302 320 316 317 304 315 284 272 280 291 277 280 307 293 287 211 202 190 197 213 214 202 187 190 192 194 195 206 209 211 212 211 210 209 208 208 209 211 213 215
270 258 242 234 280 294 318 325 323 305 277 264 272 288 296 289 251 233 230 216 192 188 199 216 208 176 180 183 185 188 194 202 206 208 209 208 209 209 211 213 215 217 217
288 282 273 227 259 298 314 308 309 302 287 273 267 265 273 279 272 255 234 209 195 199 186 190 190 176 166 173 185 178 185 193 199 203 207 209 210 212 213 216 218 220 221
315 314 308 289 280 281 280 274 276 284 288 281 274 269 266 261 273 278 263 243 209 188 167 168 173 167 166 138 136 151 172 186 195 201 205 208 211 213 214 215 217 220 221
295 292 303 297 273 258 262 258 260 261 263 268 274 279 278 271 272 278 276 268 242 199 173 173 164 164 149 127 138 146 158 177 188 197 201 205 209 211 212 213 216 218 220
305 313 321 310 294 275 259 253 251 251 252 251 259 267 268 275 280 279 282 282 254 222 200 187 161 152 132 116 142 148 138 163 181 192 197 200 202 204 207 209 212 214 215
292 293 290 289 286 279 263 244 245 243 234 234 235 247 256 262 277 280 275 279 283 261 233 195 169 149 144 139 142 123 116 127 138 168 179 186 191 194 197 200 203 205 206
301 296 293 289 285 280 273 257 245 247 243 238 236 232 232 236 254 274 277 270 265 271 258 221 156 141 133 130 129 124 133 116 97 116 140 150 158 164 168 172 176 180 184
296 296 292 288 284 280 274 265 252 246 240 237 234 231 229 228 227 242 260 267 265 257 256 227 148 145 142 136 138 134 124 107 98 96 107 114 121 128 133 136 140 143 146
294 293 290 288 284 282 279 275 265 251 242 237 234 230 227 222 223 225 234 245 251 249 244 228 176 157 148 142 133 120 111 109 104 103 97 99 104 109 114 118 121 124 125
294 289 287 284 282 280 277 275 272 261 248 239 234 232 229 223 220 219 226 231 233 236 234 227 198 165 157 152 141 135 130 126 121 111 96 99 100 99 104 110 115 118 120
293 293 291 287 283 279 272 264 263 263 253 242 236 231 232 224 221 215 215 213 217 220 222 216 206 179 163 162 160 152 141 129 116 126 121 118 108 99 98 103 110 116 117
294 292 289 287 282 278 281 286 283 278 272 258 244 234 235 232 225 211 205 198 202 213 213 211 205 190 179 173 164 155 147 145 140 152 136 126 119 109 102 98 114 119 118
294 290 286 283 278 273 272 269 265 263 263 260 250 239 237 234 214 208 204 201 204 212 210 209 207 201 183 174 166 162 162 159 143 154 137 119 108 95 88 101 117 120 121
293 289 285 282 277 273 267 258 252 254 256 251 243 233 226 243 236 213 204 205 207 207 205 204 208 205 181 165 168 164 156 134 121 133 130 118 116 105 99 100 113 121 124
294 290 286 282 278 273 264 251 239 252 250 248 242 232 221 224 229 217 208 206 207 204 205 200 191 187 180 164 167 156 150 147 146 146 131 119 128 115 104 104 112 122 129
294 293 289 286 282 276 259 238 227 244 246 244 239 240 232 224 215 206 208 209 208 202 190 189 187 185 187 179 180 173 163 160 152 151 161 132 147 137 119 119 130 136 130
Height
1518 1518 1518 1519 1518 1518 1517 1517 1518 1519 1520 1522 1524 1525 1527 1528 1531 1533 1534 1535 1537 1540 1543 1545 1548 1550 1552 1555 1558 1560 1562 1565 1567 1570 1572 1575 1577 1580 1583 1585 1588 1590 1592
1513 1513 1513 1512 1512 1512 1512 1512 1512 1513 1514 1516 1518 1520 1522 1523 1525 1527 1529 1530 1532 1535 1538 1541 1543 1545 1547 1550 1553 1555 1558 1561 1563 1566 1569 1571 1574 1577 1580 1582 1585 1588 1590
1508 1507 1506 1505 1505 1505 1505 1505 1505 1506 1508 1510 1512 1514 1516 1518 1520 1521 1523 1525 1527 1529 1532 1535 1537 1540 1542 1545 1547 1550 1553 1556 1559 1562 1564 1567 1570 1573 1576 1579 1582 1585 1587
1504 1502 1500 1499 1499 1498 1497 1498 1498 1499 1502 1504 1506 1508 1510 1511 1513 1515 1517 1519 1521 1523 1525 1528 1531 1534 1536 1539 1542 1544 1547 1550 1554 1557 1560 1563 1566 1569 1572 1575 1578 1581 1584
1500 1498 1496 1495 1493 1492 1491 1491 1491 1493 1495 1497 1500 1502 1503 1505 1507 1509 1510 1512 1514 1515 1518 1522 1525 1527 1530 1533 1536 1539 1542 1545 1548 1551 1555 1558 1561 1564 1567 1570 1574 1577 1580
1497 1495 1493 1491 1489 1488 1487 1486 1485 1487 1489 1491 1494 1496 1497 1499 1501 1502 1503 1505 1507 1509 1511 1514 1518 1520 1524 1527 1530 1533 1536 1539 1543 1546 1549 1553 1556 1559 1562 1566 1569 1573 1576
1494 1492 1490 1488 1486 1484 1482 1482 1481 1483 1484 1486 1489 1490 1492 1493 1495 1496 1498 1499 1501 1503 1505 1508 1511 1514 1517 1520 1523 1527 1530 1534 1537 1541 1544 1547 1550 1554 1557 1561 1564 1568 1571
1492 1490 1488 1485 1483 1481 1480 1479 1479 1479 1480 1482 1484 1486 1487 1490 1489 1491 1492 1494 1496 1498 1500 1503 1505 1509 1512 1514 1517 1521 1524 1527 1531 1535 1538 1542 1545 1549 1552 1556 1559 1563 1566
1490 1487 1485 1483 1482 1480 1478 1478 1478 1477 1478 1478 1480 1482 1484 1485 1485 1486 1487 1489 1492 1494 1496 1498 1501 1504 1507 1510 1512 1515 1518 1522 1525 1529 1532 1536 1540 1543 1547 1551 1554 1558 1562
1487 1485 1483 1481 1479 1478 1477 1476 1476 1476 1476 1476 1477 1478 1481 1482 1483 1482 1485 1486 1488 1489 1492 1495 1498 1500 1503 1505 1508 1510 1513 1516 1520 1523 1527 1530 1534 1538 1542 1546 1549 1553 1557
1484 1482 1480 1478 1477 1476 1475 1474 1474 1474 1474 1474 1475 1476 1477 1479 1480 1482 1482 1483 1485 1486 1488 1491 1494 1496 1498 1501 1504 1506 1509 1512 1515 1518 1521 1525 1529 1533 1536 1540 1544 1548 1552
1481 1479 1478 1476 1474 1473 1472 1471 1471 1471 1471 1471 1472 1474 1475 1476 1477 1479 1480 1481 1482 1483 1485 1488 1491 1493 1495 1497 1500 1502 1504 1507 1510 1513 1516 1520 1524 1528 1531 1535 1539 1542 1546
1476 1475 1474 1472 1471 1470 1469 1468 1467 1467 1467 1467 1468 1469 1471 1472 1474 1475 1477 1478 1478 1480 1482 1484 1487 1490 1492 1494 1495 1498 1501 1503 1506 1509 1512 1515 1519 1522 1526 1530 1533 1537 1540
1471 1470 1470 1468 1467 1466 1466 1465 1464 1464 1463 1463 1463 1464 1466 1467 1469 1471 1473 1475 1475 1477 1478 1480 1483 1486 1489 1490 1492 1495 1497 1499 1502 1504 1507 1510 1514 1517 1521 1524 1528 1532 1535
1465 1464 1463 1462 1462 1461 1461 1461 1460 1460 1459 1459 1459 1459 1460 1462 1464 1465 1467 1470 1473 1473 1475 1477 1479 1482 1484 1486 1488 1491 1493 1495 1497 1500 1503 1506 1509 1513 1517 1520 1524 1527 1530
1459 1457 1456 1455 1455 1455 1455 1455 1455 1455 1455 1454 1454 1454 1455 1456 1458 1460 1462 1465 1467 1470 1472 1473 1475 1478 1481 1483 1485 1487 1489 1491 1493 1496 1499 1502 1506 1509 1513 1516 1519 1523 1526
1453 1451 1449 1448 1448 1448 1448 1449 1449 1449 1449 1449 1450 1450 1450 1451 1452 1454 1456 1459 1462 1465 1467 1470 1472 1474 1477 1479 1482 1484 1486 1488 1490 1492 1495 1499 1502 1506 1509 1513 1516 1519 1521
1447 1445 1443 1442 1441 1440 1441 1441 1442 1442 1443 1444 1444 1445 1445 1446 1447 1448 1450 1453 1456 1460 1463 1466 1468 1470 1474 1476 1479 1481 1483 1485 1487 1489 1492 1496 1499 1503 1506 1509 1513 1515 1518
1441 1438 1437 1435 1434 1433 1433 1433 1434 1435 1436 1437 1438 1439 1440 1440 1441 1443 1444 1446 1450 1454 1457 1461 1464 1467 1470 1474 1476 1479 1481 1483 1485 1487 1490 1493 1497 1500 1503 1506 1509 1512 1514
1435 1432 1430 1428 1427 1426 1425 1425 1425 1426 1428 1429 1431 1432 1434 1435 1436 1437 1438 1440 1443 1447 1451 1455 1459 1463 1466 1470 1473 1475 1478 1481 1483 1485 1488 1491 1494 1497 1501 1503 1506 1509 1511
1429 1426 1423 1421 1419 1418 1417 1417 1417 1418 1419 1421 1423 1425 1427 1429 1430 1431 1432 1434 1437 1440 1444 1448 1453 1457 1461 1465 1468 1472 1475 1478 1482 1484 1486 1489 1492 1495 1498 1501 1504 1507 1509
1422 1419 1416 1413 1411 1410 1410 1409 1409 1409 1410 1412 1414 1417 1420 1422 1424 1425 1426 1428 1431 1433 1437 1440 1446 1450 1454 1459 1463 1467 1470 1474 1479 1483 1485 1488 1491 1493 1496 1499 1502 1505 1508
1415 1412 1408 1405 1403 1401 1400 1400 1400 1401 1402 1403 1406 1409 1413 1416 1418 1419 1420 1422 1424 1426 1430 1434 1438 1443 1448 1453 1457 1461 1466 1471 1475 1479 1483 1486 1489 1492 1495 1498 1501 1504 1507
1409 1405 1401 1398 1395 1392 1391 1391 1391 1392 1393 1395 1398 1402 1405 1409 1412 1413 1415 1416 1418 1420 1424 1428 1433 1438 1442 1447 1453 1457 1462 1468 1473 1478 1481 1484 1487 1491 1494 1497 1500 1503 1506
1402 1398 1394 1390 1387 1384 1383 1382 1383 1384 1385 1387 1391 1395 1398 1402 1405 1408 1410 1412 1413 1415 1418 1422 1427 1431 1436 1442 1447 1453 1458 1463 1468 1474 1478 1480 1484 1488 1493 1496 1499 1502 1505
1396 1392 1388 1384 1380 1377 1375 1375 1376 1377 1378 1380 1384 1388 1392 1396 1399 1402 1405 1407 1409 1411 1414 1417 1421 1426 1431 1436 1441 1447 1451 1457 1462 1469 1473 1476 1480 1485 1490 1494 1497 1500 1503